Location: Shenandoah County Park
(38.9356°N, 78.4524°W)
Time: 14:12:02
(UTC-04:00)

Envisat - Pass Details

Date: 27 May 2024
Orbit: 762 x 764 km, 98.3° (Epoch: 14 June)

Event Time Altitude Azimuth Distance (km) Brightness Sun altitude
Rises 05:02:49 0° 6° (N) 3,233 6.9 -8.9°
Reaches altitude 10° 05:05:12 10° 0° (N) 2,303 6.0 -8.5°
Maximum altitude 05:10:01 46° 289° (WNW) 1,023 3.4 -7.8°
Drops below altitude 10° 05:14:49 10° 217° (SW) 2,288 4.9 -7.0°
Enters shadow 05:15:38 - 214° (SW) 2,605 5.2 -6.9°
